Time,TemperatureF,DewpointF,PressureIn,WindDirection,WindDirectionDegrees,WindSpeedMPH,WindSpeedGustMPH,Humidity,HourlyPrecipIn,Conditions,Clouds,dailyrainin,SoftwareType,DateUTC
2013-03-07 00:08:00,32.2,30.0,30.35,ENE,71,0.0,2.0,92,0.00,,,0.00,weatherlink.com 1.10,2013-03-07 05:08:00,
2013-03-07 00:23:00,32.3,30.0,30.34,East,88,1.0,2.0,92,0.00,,,0.00,weatherlink.com 1.10,2013-03-07 05:23:00,
2013-03-07 00:38:00,31.8,30.0,30.33,East,96,3.0,5.0,92,0.00,,,0.00,weatherlink.com 1.10,2013-03-07 05:38:00,
2013-03-07 00:53:00,31.9,30.0,30.33,East,97,4.0,4.0,92,0.00,,,0.00,weatherlink.com 1.10,2013-03-07 05:53:00,
2013-03-07 01:08:00,31.9,30.0,30.34,East,85,0.0,4.0,93,0.00,,,0.00,weatherlink.com 1.10,2013-03-07 06:08:00,
2013-03-07 01:23:00,32.1,30.0,30.35,ENE,65,0.0,2.0,92,0.00,,,0.00,weatherlink.com 1.10,2013-03-07 06:23:00,
2013-03-07 01:39:00,32.1,30.0,30.35,ENE,67,0.0,4.0,92,0.00,,,0.00,weatherlink.com 1.10,2013-03-07 06:39:00,
2013-03-07 01:54:00,31.8,30.0,30.35,NE,44,0.0,1.0,91,0.00,,,0.00,weatherlink.com 1.10,2013-03-07 06:54:00,
2013-03-07 02:09:00,31.7,30.0,30.35,NE,44,0.0,2.0,92,0.00,,,0.00,weatherlink.com 1.10,2013-03-07 07:09:00,
2013-03-07 02:24:00,31.7,30.0,30.36,North,352,1.0,2.0,92,0.00,,,0.00,weatherlink.com 1.10,2013-03-07 07:24:00,
2013-03-07 02:39:00,31.6,30.0,30.36,NW,312,0.0,1.0,92,0.00,,,0.00,weatherlink.com 1.10,2013-03-07 07:39:00,
2013-03-07 02:54:00,31.7,29.0,30.35,NNW,335,0.0,2.0,91,0.00,,,0.00,weatherlink.com 1.10,2013-03-07 07:54:00,
2013-03-07 03:24:00,31.8,29.0,30.36,ENE,61,1.0,3.0,88,0.00,,,0.00,weatherlink.com 1.10,2013-03-07 08:24:00,
2013-03-07 03:39:00,32.0,29.0,30.37,NE,40,7.0,8.0,89,0.00,,,0.00,weatherlink.com 1.10,2013-03-07 08:39:00,
2013-03-07 03:54:00,32.0,28.0,30.37,NNW,345,2.0,2.0,85,0.00,,,0.00,weatherlink.com 1.10,2013-03-07 08:54:00,
2013-03-07 04:09:00,31.8,27.0,30.38,NNE,27,2.0,9.0,82,0.00,,,0.00,weatherlink.com 1.10,2013-03-07 09:09:00,
2013-03-07 04:24:00,31.9,27.0,30.38,North,1,1.0,3.0,83,0.00,,,0.00,weatherlink.com 1.10,2013-03-07 09:24:00,
2013-03-07 04:39:00,31.9,27.0,30.38,NNE,32,1.0,4.0,83,0.00,,,0.00,weatherlink.com 1.10,2013-03-07 09:39:00,
2013-03-07 04:54:00,31.8,27.0,30.39,North,352,0.0,3.0,83,0.00,,,0.00,weatherlink.com 1.10,2013-03-07 09:54:00,
2013-03-07 05:09:00,31.9,28.0,30.39,ENE,62,0.0,2.0,84,0.00,,,0.00,weatherlink.com 1.10,2013-03-07 10:09:00,
2013-03-07 05:24:00,32.0,27.0,30.39,ENE,57,0.0,3.0,83,0.00,,,0.00,weatherlink.com 1.10,2013-03-07 10:24:00,
2013-03-07 05:39:00,31.9,28.0,30.39,NE,37,0.0,3.0,84,0.00,,,0.00,weatherlink.com 1.10,2013-03-07 10:39:00,
2013-03-07 05:54:00,32.0,27.0,30.40,NNE,23,0.0,2.0,83,0.00,,,0.00,weatherlink.com 1.10,2013-03-07 10:54:00,
2013-03-07 06:09:00,32.0,27.0,30.40,NE,45,2.0,4.0,82,0.00,,,0.00,weatherlink.com 1.10,2013-03-07 11:09:00,
2013-03-07 06:24:00,32.1,28.0,30.41,ENE,63,0.0,4.0,83,0.00,,,0.00,weatherlink.com 1.10,2013-03-07 11:24:00,
2013-03-07 06:39:00,32.1,28.0,30.41,NNE,27,1.0,4.0,83,0.00,,,0.00,weatherlink.com 1.10,2013-03-07 11:39:00,
2013-03-07 06:54:00,32.4,28.0,30.41,ENE,64,1.0,5.0,83,0.00,,,0.00,weatherlink.com 1.10,2013-03-07 11:54:00,
2013-03-07 07:09:00,32.2,27.0,30.42,NE,49,0.0,4.0,82,0.00,,,0.00,weatherlink.com 1.10,2013-03-07 12:09:00,
2013-03-07 07:24:00,32.3,28.0,30.42,North,358,2.0,3.0,83,0.00,,,0.00,weatherlink.com 1.10,2013-03-07 12:24:00,
2013-03-07 07:39:00,32.4,28.0,30.42,NE,56,0.0,3.0,83,0.00,,,0.00,weatherlink.com 1.10,2013-03-07 12:39:00,
2013-03-07 07:54:00,32.6,28.0,30.42,East,79,1.0,2.0,83,0.00,,,0.00,weatherlink.com 1.10,2013-03-07 12:54:00,
2013-03-07 08:09:00,32.6,29.0,30.43,East,84,0.0,2.0,85,0.00,,,0.00,weatherlink.com 1.10,2013-03-07 13:09:00,
2013-03-07 08:24:00,32.4,28.0,30.43,NNE,20,1.0,4.0,82,0.00,,,0.00,weatherlink.com 1.10,2013-03-07 13:24:00,
2013-03-07 08:54:00,32.4,28.0,30.44,ENE,63,1.0,3.0,82,0.00,,,0.00,weatherlink.com 1.10,2013-03-07 13:54:00,
2013-03-07 09:09:00,32.3,28.0,30.44,NNE,15,3.0,5.0,83,0.00,,,0.00,weatherlink.com 1.10,2013-03-07 14:09:00,
2013-03-07 09:24:00,32.4,28.0,30.44,NNW,333,1.0,5.0,83,0.00,,,0.00,weatherlink.com 1.10,2013-03-07 14:24:00,
2013-03-07 09:39:00,32.7,28.0,30.44,North,354,2.0,6.0,83,0.00,,,0.00,weatherlink.com 1.10,2013-03-07 14:39:00,
2013-03-07 09:54:00,33.2,28.0,30.44,North,352,2.0,4.0,81,0.00,,,0.00,weatherlink.com 1.10,2013-03-07 14:54:00,
2013-03-07 10:09:00,32.8,28.0,30.44,NE,51,0.0,5.0,82,0.00,,,0.00,weatherlink.com 1.10,2013-03-07 15:09:00,
2013-03-07 10:24:00,33.4,29.0,30.45,North,11,0.0,4.0,82,0.00,,,0.00,weatherlink.com 1.10,2013-03-07 15:24:00,
2013-03-07 10:39:00,33.6,28.0,30.45,NE,42,1.0,5.0,80,0.00,,,0.00,weatherlink.com 1.10,2013-03-07 15:39:00,
2013-03-07 10:54:00,33.6,27.0,30.45,North,357,3.0,3.0,78,0.00,,,0.00,weatherlink.com 1.10,2013-03-07 15:54:00,
2013-03-07 11:09:00,33.8,28.0,30.45,NNE,24,0.0,4.0,78,0.00,,,0.00,weatherlink.com 1.10,2013-03-07 16:09:00,
2013-03-07 11:24:00,34.0,28.0,30.45,ENE,67,0.0,5.0,78,0.00,,,0.00,weatherlink.com 1.10,2013-03-07 16:24:00,
2013-03-07 11:39:00,34.1,28.0,30.45,NNE,33,0.0,4.0,77,0.00,,,0.00,weatherlink.com 1.10,2013-03-07 16:39:00,
2013-03-07 11:54:00,34.0,28.0,30.45,NNW,343,0.0,4.0,79,0.00,,,0.00,weatherlink.com 1.10,2013-03-07 16:54:00,
2013-03-07 12:09:00,34.7,29.0,30.45,ENE,57,0.0,3.0,78,0.00,,,0.00,weatherlink.com 1.10,2013-03-07 17:09:00,
2013-03-07 12:24:00,35.0,28.0,30.45,North,3,1.0,4.0,77,0.00,,,0.00,weatherlink.com 1.10,2013-03-07 17:24:00,
2013-03-07 12:40:00,35.9,29.0,30.43,East,80,1.0,3.0,76,0.00,,,0.00,weatherlink.com 1.10,2013-03-07 17:40:00,
2013-03-07 12:54:00,40.8,31.0,30.43,North,353,3.0,3.0,69,0.00,,,0.00,weatherlink.com 1.10,2013-03-07 17:54:00,
2013-03-07 13:09:00,37.7,30.0,30.43,ENE,74,1.0,5.0,75,0.00,,,0.00,weatherlink.com 1.10,2013-03-07 18:09:00,
2013-03-07 13:40:00,36.3,30.0,30.42,NE,43,0.0,6.0,77,0.00,,,0.00,weatherlink.com 1.10,2013-03-07 18:40:00,
2013-03-07 13:55:00,35.9,28.0,30.41,NE,46,2.0,6.0,73,0.00,,,0.00,weatherlink.com 1.10,2013-03-07 18:55:00,
2013-03-07 14:10:00,35.7,29.0,30.41,NE,53,1.0,6.0,75,0.00,,,0.00,weatherlink.com 1.10,2013-03-07 19:10:00,
2013-03-07 14:25:00,35.4,29.0,30.41,NE,49,4.0,7.0,76,0.00,,,0.00,weatherlink.com 1.10,2013-03-07 19:25:00,
2013-03-07 14:40:00,34.9,28.0,30.41,NE,51,3.0,6.0,76,0.00,,,0.00,weatherlink.com 1.10,2013-03-07 19:40:00,
2013-03-07 14:55:00,35.7,29.0,30.41,East,95,0.0,3.0,78,0.00,,,0.00,weatherlink.com 1.10,2013-03-07 19:55:00,
2013-03-07 15:10:00,35.9,29.0,30.42,ENE,65,3.0,3.0,77,0.00,,,0.00,weatherlink.com 1.10,2013-03-07 20:10:00,
2013-03-07 15:25:00,36.1,29.0,30.41,North,11,1.0,6.0,75,0.00,,,0.00,weatherlink.com 1.10,2013-03-07 20:25:00,
2013-03-07 15:40:00,36.0,29.0,30.42,North,3,1.0,7.0,76,0.00,,,0.00,weatherlink.com 1.10,2013-03-07 20:40:00,
2013-03-07 15:55:00,36.2,29.0,30.42,East,91,0.0,3.0,76,0.00,,,0.00,weatherlink.com 1.10,2013-03-07 20:55:00,
2013-03-07 16:10:00,35.9,29.0,30.43,NNW,346,1.0,5.0,75,0.00,,,0.00,weatherlink.com 1.10,2013-03-07 21:10:00,
2013-03-07 16:25:00,35.3,28.0,30.43,NE,41,3.0,7.0,75,0.00,,,0.00,weatherlink.com 1.10,2013-03-07 21:25:00,
2013-03-07 16:40:00,35.2,28.0,30.43,NW,325,1.0,6.0,76,0.00,,,0.00,weatherlink.com 1.10,2013-03-07 21:40:00,
2013-03-07 16:55:00,35.0,28.0,30.43,North,353,2.0,5.0,76,0.00,,,0.00,weatherlink.com 1.10,2013-03-07 21:55:00,
2013-03-07 17:10:00,34.9,28.0,30.43,NNW,338,2.0,7.0,76,0.00,,,0.00,weatherlink.com 1.10,2013-03-07 22:10:00,
2013-03-07 17:25:00,34.8,28.0,30.43,ENE,60,1.0,5.0,76,0.00,,,0.00,weatherlink.com 1.10,2013-03-07 22:25:00,
2013-03-07 17:40:00,34.5,28.0,30.43,NW,326,1.0,8.0,76,0.00,,,0.00,weatherlink.com 1.10,2013-03-07 22:40:00,
2013-03-07 17:55:00,34.6,29.0,30.43,East,101,1.0,8.0,79,0.00,,,0.00,weatherlink.com 1.10,2013-03-07 22:55:00,
2013-03-07 18:10:00,34.7,28.0,30.43,ENE,66,2.0,3.0,76,0.00,,,0.00,weatherlink.com 1.10,2013-03-07 23:10:00,
2013-03-07 18:25:00,34.7,28.0,30.43,ENE,73,0.0,5.0,75,0.00,,,0.00,weatherlink.com 1.10,2013-03-07 23:25:00,
2013-03-07 18:40:00,34.4,27.0,30.44,North,1,1.0,5.0,75,0.00,,,0.00,weatherlink.com 1.10,2013-03-07 23:40:00,
2013-03-07 18:55:00,34.2,28.0,30.44,WNW,299,0.0,4.0,77,0.00,,,0.00,weatherlink.com 1.10,2013-03-07 23:55:00,
2013-03-07 19:10:00,34.0,28.0,30.44,NNW,340,0.0,6.0,78,0.00,,,0.00,weatherlink.com 1.10,2013-03-08 00:10:00,
2013-03-07 19:25:00,33.9,27.0,30.45,NNW,348,2.0,7.0,77,0.00,,,0.00,weatherlink.com 1.10,2013-03-08 00:25:00,
2013-03-07 19:40:00,33.9,27.0,30.45,North,9,0.0,4.0,77,0.00,,,0.00,weatherlink.com 1.10,2013-03-08 00:40:00,
2013-03-07 19:55:00,33.8,28.0,30.46,NNW,344,2.0,6.0,78,0.00,,,0.00,weatherlink.com 1.10,2013-03-08 00:55:00,
2013-03-07 20:10:00,34.2,28.0,30.46,ESE,110,2.0,5.0,77,0.00,,,0.00,weatherlink.com 1.10,2013-03-08 01:10:00,
2013-03-07 20:25:00,34.3,28.0,30.46,NE,53,2.0,4.0,78,0.00,,,0.00,weatherlink.com 1.10,2013-03-08 01:25:00,
2013-03-07 20:40:00,34.3,28.0,30.46,East,91,2.0,5.0,78,0.00,,,0.00,weatherlink.com 1.10,2013-03-08 01:40:00,
2013-03-07 20:55:00,33.9,28.0,30.46,East,98,5.0,8.0,78,0.00,,,0.00,weatherlink.com 1.10,2013-03-08 01:55:00,
2013-03-07 21:10:00,34.0,28.0,30.46,ENE,64,2.0,6.0,77,0.00,,,0.00,weatherlink.com 1.10,2013-03-08 02:10:00,
2013-03-07 21:25:00,33.5,27.0,30.46,ENE,74,4.0,10.0,76,0.00,,,0.00,weatherlink.com 1.10,2013-03-08 02:25:00,
2013-03-07 21:40:00,33.5,27.0,30.45,East,95,2.0,10.0,77,0.00,,,0.00,weatherlink.com 1.10,2013-03-08 02:40:00,
2013-03-07 21:55:00,33.4,27.0,30.45,NE,49,2.0,6.0,77,0.00,,,0.00,weatherlink.com 1.10,2013-03-08 02:55:00,
2013-03-07 22:10:00,33.1,27.0,30.45,ENE,63,1.0,7.0,77,0.00,,,0.00,weatherlink.com 1.10,2013-03-08 03:10:00,
2013-03-07 22:25:00,33.0,27.0,30.46,North,1,0.0,6.0,77,0.00,,,0.00,weatherlink.com 1.10,2013-03-08 03:25:00,
2013-03-07 22:40:00,32.8,26.0,30.46,North,4,1.0,5.0,77,0.00,,,0.00,weatherlink.com 1.10,2013-03-08 03:40:00,
2013-03-07 22:55:00,32.8,27.0,30.45,NNE,14,2.0,5.0,78,0.00,,,0.00,weatherlink.com 1.10,2013-03-08 03:55:00,
2013-03-07 23:10:00,32.5,26.0,30.46,North,354,4.0,5.0,78,0.00,,,0.00,weatherlink.com 1.10,2013-03-08 04:10:00,
2013-03-07 23:25:00,32.6,27.0,30.45,ENE,72,2.0,4.0,79,0.00,,,0.00,weatherlink.com 1.10,2013-03-08 04:25:00,
2013-03-07 23:40:00,32.6,27.0,30.45,NNW,348,3.0,5.0,79,0.00,,,0.00,weatherlink.com 1.10,2013-03-08 04:40:00,
2013-03-07 23:55:00,32.6,27.0,30.44,North,3,2.0,7.0,79,0.00,,,0.00,weatherlink.com 1.10,2013-03-08 04:55:00,